Location: Strawberry
(45.6646°N, 111.9596°W)
Time: 16:18:26
(UTC+00:00)

SR - Pass Details

Date: 08 October 2022
Orbit: 577 x 874 km, 66.7° (Epoch: 05 December)

Event Time Altitude Azimuth Distance (km) Brightness Sun altitude
Rises 12:46:03 0° 318° (NW) 3,293 ? -9.4°
Reaches altitude 10° 12:48:53 10° 306° (NW) 2,308 ? -8.9°
Maximum altitude 12:53:10 26° 252° (WSW) 1,412 ? -8.2°
Drops below altitude 10° 12:57:09 10° 196° (SSW) 2,130 ? -7.5°
Sets 12:59:41 0° 184° (S) 2,989 ? -7.0°
